#datetime,building,power
2023-01-22T00:00:00,axn,26.09
2023-01-22T00:01:00,axn,25.81
2023-01-22T00:02:00,axn,25.81
2023-01-22T00:03:00,axn,26.24
2023-01-22T00:04:00,axn,26.32
2023-01-22T00:05:00,axn,26.44
2023-01-22T00:06:00,axn,26.38
2023-01-22T00:07:00,axn,26.09
2023-01-22T00:08:00,axn,26.20
2023-01-22T00:09:00,axn,26.10
2023-01-22T00:10:00,axn,25.85
2023-01-22T00:11:00,axn,26.17
2023-01-22T00:12:00,axn,26.05
2023-01-22T00:13:00,axn,25.83
2023-01-22T00:14:00,axn,26.34
2023-01-22T00:15:00,axn,26.39
2023-01-22T00:16:00,axn,26.46
2023-01-22T00:17:00,axn,26.62
2023-01-22T00:18:00,axn,26.54
2023-01-22T00:19:00,axn,26.51
2023-01-22T00:20:00,axn,26.72
2023-01-22T00:21:00,axn,26.62
2023-01-22T00:22:00,axn,26.36
2023-01-22T00:23:00,axn,26.66
2023-01-22T00:24:00,axn,26.69
2023-01-22T00:25:00,axn,52.93
2023-01-22T00:26:00,axn,37.00
2023-01-22T00:27:00,axn,36.81
2023-01-22T00:28:00,axn,36.79
2023-01-22T00:29:00,axn,26.45
2023-01-22T00:30:00,axn,26.64
2023-01-22T00:31:00,axn,26.26
2023-01-22T00:32:00,axn,26.38
2023-01-22T00:33:00,axn,26.46
2023-01-22T00:34:00,axn,26.57
2023-01-22T00:35:00,axn,26.73
2023-01-22T00:36:00,axn,27.03
2023-01-22T00:37:00,axn,27.03
2023-01-22T00:38:00,axn,27.23
2023-01-22T00:39:00,axn,27.36
2023-01-22T00:40:00,axn,43.34
2023-01-22T00:41:00,axn,26.97
2023-01-22T00:42:00,axn,26.93
2023-01-22T00:43:00,axn,27.39
2023-01-22T00:44:00,axn,27.08
2023-01-22T00:45:00,axn,27.46
2023-01-22T00:46:00,axn,27.05
2023-01-22T00:47:00,axn,27.51
2023-01-22T00:48:00,axn,26.66
2023-01-22T00:49:00,axn,26.83
2023-01-22T00:50:00,axn,27.03
2023-01-22T00:51:00,axn,26.82
2023-01-22T00:52:00,axn,26.88
2023-01-22T00:53:00,axn,26.94
2023-01-22T00:54:00,axn,27.10
2023-01-22T00:55:00,axn,27.25
2023-01-22T00:56:00,axn,26.86
2023-01-22T00:57:00,axn,26.75
2023-01-22T00:58:00,axn,26.71
2023-01-22T00:59:00,axn,26.65
2023-01-22T01:00:00,axn,26.76
2023-01-22T01:01:00,axn,30.04
2023-01-22T01:02:00,axn,26.78
2023-01-22T01:03:00,axn,26.87
2023-01-22T01:04:00,axn,26.79
2023-01-22T01:05:00,axn,26.74
2023-01-22T01:06:00,axn,26.71
2023-01-22T01:07:00,axn,26.73
2023-01-22T01:08:00,axn,26.82
2023-01-22T01:09:00,axn,26.52
2023-01-22T01:10:00,axn,26.56
2023-01-22T01:11:00,axn,25.98
2023-01-22T01:12:00,axn,25.95
2023-01-22T01:13:00,axn,26.08
2023-01-22T01:14:00,axn,26.14
2023-01-22T01:15:00,axn,25.79
2023-01-22T01:16:00,axn,25.96
2023-01-22T01:17:00,axn,25.82
2023-01-22T01:18:00,axn,25.73
2023-01-22T01:19:00,axn,26.41
2023-01-22T01:20:00,axn,25.22
2023-01-22T01:21:00,axn,25.02
2023-01-22T01:22:00,axn,25.28
2023-01-22T01:23:00,axn,25.39
2023-01-22T01:24:00,axn,25.33
2023-01-22T01:25:00,axn,25.08
2023-01-22T01:26:00,axn,25.11
2023-01-22T01:27:00,axn,25.09
2023-01-22T01:28:00,axn,25.23
2023-01-22T01:29:00,axn,25.02
2023-01-22T01:30:00,axn,24.78
2023-01-22T01:31:00,axn,24.98
2023-01-22T01:32:00,axn,24.76
2023-01-22T01:33:00,axn,24.91
2023-01-22T01:34:00,axn,25.05
2023-01-22T01:35:00,axn,24.96
2023-01-22T01:36:00,axn,24.88
2023-01-22T01:37:00,axn,24.91
2023-01-22T01:38:00,axn,24.76
2023-01-22T01:39:00,axn,24.93
2023-01-22T01:40:00,axn,25.09
2023-01-22T01:41:00,axn,25.13
2023-01-22T01:42:00,axn,25.13
2023-01-22T01:43:00,axn,25.26
2023-01-22T01:44:00,axn,25.17
2023-01-22T01:45:00,axn,30.96
2023-01-22T01:46:00,axn,30.93
2023-01-22T01:47:00,axn,30.89
2023-01-22T01:48:00,axn,25.02
2023-01-22T01:49:00,axn,25.49
2023-01-22T01:50:00,axn,25.37
2023-01-22T01:51:00,axn,25.19
2023-01-22T01:52:00,axn,25.29
2023-01-22T01:53:00,axn,25.25
2023-01-22T01:54:00,axn,25.21
2023-01-22T01:55:00,axn,25.82
2023-01-22T01:56:00,axn,25.32
2023-01-22T01:57:00,axn,25.26
2023-01-22T01:58:00,axn,25.41
2023-01-22T01:59:00,axn,25.23
2023-01-22T02:00:00,axn,25.20
2023-01-22T02:01:00,axn,25.06
2023-01-22T02:02:00,axn,25.12
2023-01-22T02:03:00,axn,25.08
2023-01-22T02:04:00,axn,25.57
2023-01-22T02:05:00,axn,25.46
2023-01-22T02:06:00,axn,25.26
2023-01-22T02:07:00,axn,25.11
2023-01-22T02:08:00,axn,25.01
2023-01-22T02:09:00,axn,24.92
2023-01-22T02:10:00,axn,24.90
2023-01-22T02:11:00,axn,24.85
2023-01-22T02:12:00,axn,24.97
2023-01-22T02:13:00,axn,25.13
2023-01-22T02:14:00,axn,25.00
2023-01-22T02:15:00,axn,27.80
2023-01-22T02:16:00,axn,27.79
2023-01-22T02:17:00,axn,27.99
2023-01-22T02:18:00,axn,25.04
2023-01-22T02:19:00,axn,25.12
2023-01-22T02:20:00,axn,25.02
2023-01-22T02:21:00,axn,24.87
2023-01-22T02:22:00,axn,25.09
2023-01-22T02:23:00,axn,25.35
2023-01-22T02:24:00,axn,25.21
2023-01-22T02:25:00,axn,25.24
2023-01-22T02:26:00,axn,25.64
2023-01-22T02:27:00,axn,25.62
2023-01-22T02:28:00,axn,25.28
2023-01-22T02:29:00,axn,25.39
2023-01-22T02:30:00,axn,25.27
2023-01-22T02:31:00,axn,25.12
2023-01-22T02:32:00,axn,25.07
2023-01-22T02:33:00,axn,25.30
2023-01-22T02:34:00,axn,25.87
2023-01-22T02:35:00,axn,25.16
2023-01-22T02:36:00,axn,25.19
2023-01-22T02:37:00,axn,25.29
2023-01-22T02:38:00,axn,25.13
2023-01-22T02:39:00,axn,25.28
2023-01-22T02:40:00,axn,25.13
2023-01-22T02:41:00,axn,25.31
2023-01-22T02:42:00,axn,25.77
2023-01-22T02:43:00,axn,25.56
2023-01-22T02:44:00,axn,25.45
2023-01-22T02:45:00,axn,25.54
2023-01-22T02:46:00,axn,25.51
2023-01-22T02:47:00,axn,25.34
2023-01-22T02:48:00,axn,25.34
2023-01-22T02:49:00,axn,25.26
2023-01-22T02:50:00,axn,25.29
2023-01-22T02:51:00,axn,25.10
2023-01-22T02:52:00,axn,25.04
2023-01-22T02:53:00,axn,25.42
2023-01-22T02:54:00,axn,25.46
2023-01-22T02:55:00,axn,25.00
2023-01-22T02:56:00,axn,25.07
2023-01-22T02:57:00,axn,25.04
2023-01-22T02:58:00,axn,24.85
2023-01-22T02:59:00,axn,25.05
2023-01-22T03:00:00,axn,24.84
2023-01-22T03:01:00,axn,35.19
2023-01-22T03:02:00,axn,24.93
2023-01-22T03:03:00,axn,25.28
2023-01-22T03:04:00,axn,25.54
2023-01-22T03:05:00,axn,25.48
2023-01-22T03:06:00,axn,25.29
2023-01-22T03:07:00,axn,24.94
2023-01-22T03:08:00,axn,29.48
2023-01-22T03:09:00,axn,29.51
2023-01-22T03:10:00,axn,29.46
2023-01-22T03:11:00,axn,25.08
2023-01-22T03:12:00,axn,24.87
2023-01-22T03:13:00,axn,25.29
2023-01-22T03:14:00,axn,25.24
2023-01-22T03:15:00,axn,25.22
2023-01-22T03:16:00,axn,25.32
2023-01-22T03:17:00,axn,25.18
2023-01-22T03:18:00,axn,25.08
2023-01-22T03:19:00,axn,24.98
2023-01-22T03:20:00,axn,25.00
2023-01-22T03:21:00,axn,25.23
2023-01-22T03:22:00,axn,25.03
2023-01-22T03:23:00,axn,25.41
2023-01-22T03:24:00,axn,25.20
2023-01-22T03:25:00,axn,25.04
2023-01-22T03:26:00,axn,25.24
2023-01-22T03:27:00,axn,25.52
2023-01-22T03:28:00,axn,25.16
2023-01-22T03:29:00,axn,25.14
2023-01-22T03:30:00,axn,25.14
2023-01-22T03:31:00,axn,25.62
2023-01-22T03:32:00,axn,25.45
2023-01-22T03:33:00,axn,25.37
2023-01-22T03:34:00,axn,25.31
2023-01-22T03:35:00,axn,25.29
2023-01-22T03:36:00,axn,25.28
2023-01-22T03:37:00,axn,25.46
2023-01-22T03:38:00,axn,25.21
2023-01-22T03:39:00,axn,24.87
2023-01-22T03:40:00,axn,25.21
2023-01-22T03:41:00,axn,24.98
2023-01-22T03:42:00,axn,24.91
2023-01-22T03:43:00,axn,24.99
2023-01-22T03:44:00,axn,24.91
2023-01-22T03:45:00,axn,24.93
2023-01-22T03:46:00,axn,24.65
2023-01-22T03:47:00,axn,27.56
2023-01-22T03:48:00,axn,25.00
2023-01-22T03:49:00,axn,24.58
2023-01-22T03:50:00,axn,24.69
2023-01-22T03:51:00,axn,24.62
2023-01-22T03:52:00,axn,24.72
2023-01-22T03:53:00,axn,24.87
2023-01-22T03:54:00,axn,24.78
2023-01-22T03:55:00,axn,24.90
2023-01-22T03:56:00,axn,24.90
2023-01-22T03:57:00,axn,24.82
2023-01-22T03:58:00,axn,24.86
2023-01-22T03:59:00,axn,24.69
2023-01-22T04:00:00,axn,24.50
2023-01-22T04:01:00,axn,24.81
2023-01-22T04:02:00,axn,24.90
2023-01-22T04:03:00,axn,25.13
2023-01-22T04:04:00,axn,25.10
2023-01-22T04:05:00,axn,25.23
2023-01-22T04:06:00,axn,25.01
2023-01-22T04:07:00,axn,24.95
2023-01-22T04:08:00,axn,24.96
2023-01-22T04:09:00,axn,25.10
2023-01-22T04:10:00,axn,25.07
2023-01-22T04:11:00,axn,25.39
2023-01-22T04:12:00,axn,25.05
2023-01-22T04:13:00,axn,25.18
2023-01-22T04:14:00,axn,25.21
2023-01-22T04:15:00,axn,25.44
2023-01-22T04:16:00,axn,25.04
2023-01-22T04:17:00,axn,25.22
2023-01-22T04:18:00,axn,25.02
2023-01-22T04:19:00,axn,25.12
2023-01-22T04:20:00,axn,24.95
2023-01-22T04:21:00,axn,25.13
2023-01-22T04:22:00,axn,25.21
2023-01-22T04:23:00,axn,24.89
2023-01-22T04:24:00,axn,24.90
2023-01-22T04:25:00,axn,25.20
2023-01-22T04:26:00,axn,25.28
2023-01-22T04:27:00,axn,25.26
2023-01-22T04:28:00,axn,24.76
2023-01-22T04:29:00,axn,24.99
2023-01-22T04:30:00,axn,24.99
2023-01-22T04:31:00,axn,25.75
2023-01-22T04:32:00,axn,25.07
2023-01-22T04:33:00,axn,25.11
2023-01-22T04:34:00,axn,25.31
2023-01-22T04:35:00,axn,25.20
2023-01-22T04:36:00,axn,25.89
2023-01-22T04:37:00,axn,25.22
2023-01-22T04:38:00,axn,25.58
2023-01-22T04:39:00,axn,25.53
2023-01-22T04:40:00,axn,25.34
2023-01-22T04:41:00,axn,25.13
2023-01-22T04:42:00,axn,24.95
2023-01-22T04:43:00,axn,25.09
2023-01-22T04:44:00,axn,25.01
2023-01-22T04:45:00,axn,25.02
2023-01-22T04:46:00,axn,25.23
2023-01-22T04:47:00,axn,24.90
2023-01-22T04:48:00,axn,24.73
2023-01-22T04:49:00,axn,24.96
2023-01-22T04:50:00,axn,25.00
2023-01-22T04:51:00,axn,24.83
2023-01-22T04:52:00,axn,24.85
2023-01-22T04:53:00,axn,24.81
2023-01-22T04:54:00,axn,24.97
2023-01-22T04:55:00,axn,25.24
2023-01-22T04:56:00,axn,25.49
2023-01-22T04:57:00,axn,25.53
2023-01-22T04:58:00,axn,25.59
2023-01-22T04:59:00,axn,25.29
2023-01-22T05:00:00,axn,25.23
2023-01-22T05:01:00,axn,27.70
2023-01-22T05:02:00,axn,30.32
2023-01-22T05:03:00,axn,30.04
2023-01-22T05:04:00,axn,30.34
2023-01-22T05:05:00,axn,30.16
2023-01-22T05:06:00,axn,30.20
2023-01-22T05:07:00,axn,30.40
2023-01-22T05:08:00,axn,30.29
2023-01-22T05:09:00,axn,30.01
2023-01-22T05:10:00,axn,30.24
2023-01-22T05:11:00,axn,30.22
2023-01-22T05:12:00,axn,30.01
2023-01-22T05:13:00,axn,29.90
2023-01-22T05:14:00,axn,30.04
2023-01-22T05:15:00,axn,29.89
2023-01-22T05:16:00,axn,29.81
2023-01-22T05:17:00,axn,29.85
2023-01-22T05:18:00,axn,29.86
2023-01-22T05:19:00,axn,32.85
2023-01-22T05:20:00,axn,32.81
2023-01-22T05:21:00,axn,32.65
2023-01-22T05:22:00,axn,29.94
2023-01-22T05:23:00,axn,30.14
2023-01-22T05:24:00,axn,29.85
2023-01-22T05:25:00,axn,29.73
2023-01-22T05:26:00,axn,30.07
2023-01-22T05:27:00,axn,29.56
2023-01-22T05:28:00,axn,29.64
2023-01-22T05:29:00,axn,29.69
2023-01-22T05:30:00,axn,30.17
2023-01-22T05:31:00,axn,29.74
2023-01-22T05:32:00,axn,29.68
2023-01-22T05:33:00,axn,29.62
2023-01-22T05:34:00,axn,29.77
2023-01-22T05:35:00,axn,30.35
2023-01-22T05:36:00,axn,30.53
2023-01-22T05:37:00,axn,29.72
2023-01-22T05:38:00,axn,44.58
2023-01-22T05:39:00,axn,44.33
2023-01-22T05:40:00,axn,43.59
2023-01-22T05:41:00,axn,44.01
2023-01-22T05:42:00,axn,44.08
2023-01-22T05:43:00,axn,43.92
2023-01-22T05:44:00,axn,29.66
2023-01-22T05:45:00,axn,29.79
2023-01-22T05:46:00,axn,29.88
2023-01-22T05:47:00,axn,29.71
2023-01-22T05:48:00,axn,29.49
2023-01-22T05:49:00,axn,40.29
2023-01-22T05:50:00,axn,39.73
2023-01-22T05:51:00,axn,39.63
2023-01-22T05:52:00,axn,39.69
2023-01-22T05:53:00,axn,29.44
2023-01-22T05:54:00,axn,29.66
2023-01-22T05:55:00,axn,29.51
2023-01-22T05:56:00,axn,29.45
2023-01-22T05:57:00,axn,29.24
2023-01-22T05:58:00,axn,29.54
2023-01-22T05:59:00,axn,29.44
2023-01-22T06:00:00,axn,29.25
2023-01-22T06:01:00,axn,29.96
2023-01-22T06:02:00,axn,29.03
2023-01-22T06:03:00,axn,29.53
2023-01-22T06:04:00,axn,29.26
2023-01-22T06:05:00,axn,29.23
2023-01-22T06:06:00,axn,29.61
2023-01-22T06:07:00,axn,29.47
2023-01-22T06:08:00,axn,29.62
2023-01-22T06:09:00,axn,29.41
2023-01-22T06:10:00,axn,29.41
2023-01-22T06:11:00,axn,29.44
2023-01-22T06:12:00,axn,29.31
2023-01-22T06:13:00,axn,29.26
2023-01-22T06:14:00,axn,29.21
2023-01-22T06:15:00,axn,29.59
2023-01-22T06:16:00,axn,29.36
2023-01-22T06:17:00,axn,29.33
2023-01-22T06:18:00,axn,29.42
2023-01-22T06:19:00,axn,29.40
2023-01-22T06:20:00,axn,29.27
2023-01-22T06:21:00,axn,28.95
2023-01-22T06:22:00,axn,29.90
2023-01-22T06:23:00,axn,29.40
2023-01-22T06:24:00,axn,29.00
2023-01-22T06:25:00,axn,28.76
2023-01-22T06:26:00,axn,28.48
2023-01-22T06:27:00,axn,28.61
2023-01-22T06:28:00,axn,28.78
2023-01-22T06:29:00,axn,28.51
2023-01-22T06:30:00,axn,28.76
2023-01-22T06:31:00,axn,28.77
2023-01-22T06:32:00,axn,28.54
2023-01-22T06:33:00,axn,28.33
2023-01-22T06:34:00,axn,28.70
2023-01-22T06:35:00,axn,28.70
2023-01-22T06:36:00,axn,28.58
2023-01-22T06:37:00,axn,28.46
2023-01-22T06:38:00,axn,28.72
2023-01-22T06:39:00,axn,28.33
2023-01-22T06:40:00,axn,28.36
2023-01-22T06:41:00,axn,28.38
2023-01-22T06:42:00,axn,28.40
2023-01-22T06:43:00,axn,28.89
2023-01-22T06:44:00,axn,28.83
2023-01-22T06:45:00,axn,28.86
2023-01-22T06:46:00,axn,31.64
2023-01-22T06:47:00,axn,28.83
2023-01-22T06:48:00,axn,28.60
2023-01-22T06:49:00,axn,28.34
2023-01-22T06:50:00,axn,28.51
2023-01-22T06:51:00,axn,28.14
2023-01-22T06:52:00,axn,28.21
2023-01-22T06:53:00,axn,28.40
2023-01-22T06:54:00,axn,28.59
2023-01-22T06:55:00,axn,28.86
2023-01-22T06:56:00,axn,28.48
2023-01-22T06:57:00,axn,28.51
2023-01-22T06:58:00,axn,28.68
2023-01-22T06:59:00,axn,28.51
2023-01-22T07:00:00,axn,28.42
2023-01-22T07:01:00,axn,31.74
2023-01-22T07:02:00,axn,33.88
2023-01-22T07:03:00,axn,32.05
2023-01-22T07:04:00,axn,33.19
2023-01-22T07:05:00,axn,32.55
2023-01-22T07:06:00,axn,32.64
2023-01-22T07:07:00,axn,32.76
2023-01-22T07:08:00,axn,32.75
2023-01-22T07:09:00,axn,32.71
2023-01-22T07:10:00,axn,32.89
2023-01-22T07:11:00,axn,33.00
2023-01-22T07:12:00,axn,33.53
2023-01-22T07:13:00,axn,33.30
2023-01-22T07:14:00,axn,34.11
2023-01-22T07:15:00,axn,33.98
2023-01-22T07:16:00,axn,33.63
2023-01-22T07:17:00,axn,33.65
2023-01-22T07:18:00,axn,33.73
2023-01-22T07:19:00,axn,33.24
2023-01-22T07:20:00,axn,33.36
2023-01-22T07:21:00,axn,33.44
2023-01-22T07:22:00,axn,33.32
2023-01-22T07:23:00,axn,34.43
2023-01-22T07:24:00,axn,33.88
2023-01-22T07:25:00,axn,33.55
2023-01-22T07:26:00,axn,33.78
2023-01-22T07:27:00,axn,33.61
2023-01-22T07:28:00,axn,33.93
2023-01-22T07:29:00,axn,33.89
2023-01-22T07:30:00,axn,33.57
2023-01-22T07:31:00,axn,33.43
2023-01-22T07:32:00,axn,33.55
2023-01-22T07:33:00,axn,33.40
2023-01-22T07:34:00,axn,33.38
2023-01-22T07:35:00,axn,33.59
2023-01-22T07:36:00,axn,33.38
2023-01-22T07:37:00,axn,33.66
2023-01-22T07:38:00,axn,33.26
2023-01-22T07:39:00,axn,33.41
2023-01-22T07:40:00,axn,33.53
2023-01-22T07:41:00,axn,33.37
2023-01-22T07:42:00,axn,33.44
2023-01-22T07:43:00,axn,32.62
2023-01-22T07:44:00,axn,33.28
2023-01-22T07:45:00,axn,32.94
2023-01-22T07:46:00,axn,33.04
2023-01-22T07:47:00,axn,33.27
2023-01-22T07:48:00,axn,33.04
2023-01-22T07:49:00,axn,33.08
2023-01-22T07:50:00,axn,32.92
2023-01-22T07:51:00,axn,32.72
2023-01-22T07:52:00,axn,32.84
2023-01-22T07:53:00,axn,33.08
2023-01-22T07:54:00,axn,32.94
2023-01-22T07:55:00,axn,32.75
2023-01-22T07:56:00,axn,32.73
2023-01-22T07:57:00,axn,32.80
2023-01-22T07:58:00,axn,32.90
2023-01-22T07:59:00,axn,33.05
2023-01-22T08:00:00,axn,33.15
2023-01-22T08:01:00,axn,33.18
2023-01-22T08:02:00,axn,32.92
2023-01-22T08:03:00,axn,32.99
2023-01-22T08:04:00,axn,32.88
2023-01-22T08:05:00,axn,33.17
2023-01-22T08:06:00,axn,33.62
2023-01-22T08:07:00,axn,33.26
2023-01-22T08:08:00,axn,32.90
2023-01-22T08:09:00,axn,32.70
2023-01-22T08:10:00,axn,32.91
2023-01-22T08:11:00,axn,32.91
2023-01-22T08:12:00,axn,32.61
2023-01-22T08:13:00,axn,32.84
2023-01-22T08:14:00,axn,33.06
2023-01-22T08:15:00,axn,32.75
2023-01-22T08:16:00,axn,32.85
2023-01-22T08:17:00,axn,33.23
2023-01-22T08:18:00,axn,32.97
2023-01-22T08:19:00,axn,33.14
2023-01-22T08:20:00,axn,33.25
2023-01-22T08:21:00,axn,33.41
2023-01-22T08:22:00,axn,33.15
2023-01-22T08:23:00,axn,33.30
2023-01-22T08:24:00,axn,33.27
2023-01-22T08:25:00,axn,33.32
2023-01-22T08:26:00,axn,33.14
2023-01-22T08:27:00,axn,33.25
2023-01-22T08:28:00,axn,33.25
2023-01-22T08:29:00,axn,35.90
2023-01-22T08:30:00,axn,36.46
2023-01-22T08:31:00,axn,36.36
2023-01-22T08:32:00,axn,34.04
2023-01-22T08:33:00,axn,34.39
2023-01-22T08:34:00,axn,34.85
2023-01-22T08:35:00,axn,34.84
2023-01-22T08:36:00,axn,34.23
2023-01-22T08:37:00,axn,34.16
2023-01-22T08:38:00,axn,34.08
2023-01-22T08:39:00,axn,34.13
2023-01-22T08:40:00,axn,34.09
2023-01-22T08:41:00,axn,33.97
2023-01-22T08:42:00,axn,33.98
2023-01-22T08:43:00,axn,33.91
2023-01-22T08:44:00,axn,34.33
2023-01-22T08:45:00,axn,35.07
2023-01-22T08:46:00,axn,35.27
2023-01-22T08:47:00,axn,35.07
2023-01-22T08:48:00,axn,34.67
2023-01-22T08:49:00,axn,35.29
2023-01-22T08:50:00,axn,34.52
2023-01-22T08:51:00,axn,34.66
2023-01-22T08:52:00,axn,35.26
2023-01-22T08:53:00,axn,34.90
2023-01-22T08:54:00,axn,34.88
2023-01-22T08:55:00,axn,34.47
2023-01-22T08:56:00,axn,34.46
2023-01-22T08:57:00,axn,34.50
2023-01-22T08:58:00,axn,34.61
2023-01-22T08:59:00,axn,34.90
2023-01-22T09:00:00,axn,35.04
2023-01-22T09:01:00,axn,34.92
2023-01-22T09:02:00,axn,35.07
2023-01-22T09:03:00,axn,35.05
2023-01-22T09:04:00,axn,34.44
2023-01-22T09:05:00,axn,34.42
2023-01-22T09:06:00,axn,34.58
2023-01-22T09:07:00,axn,34.56
2023-01-22T09:08:00,axn,34.66
2023-01-22T09:09:00,axn,34.53
2023-01-22T09:10:00,axn,34.83
2023-01-22T09:11:00,axn,34.29
2023-01-22T09:12:00,axn,34.02
2023-01-22T09:13:00,axn,34.23
2023-01-22T09:14:00,axn,34.86
2023-01-22T09:15:00,axn,34.28
2023-01-22T09:16:00,axn,34.48
2023-01-22T09:17:00,axn,34.46
2023-01-22T09:18:00,axn,34.41
2023-01-22T09:19:00,axn,34.45
2023-01-22T09:20:00,axn,34.65
2023-01-22T09:21:00,axn,34.66
2023-01-22T09:22:00,axn,34.50
2023-01-22T09:23:00,axn,35.15
2023-01-22T09:24:00,axn,35.08
2023-01-22T09:25:00,axn,35.10
2023-01-22T09:26:00,axn,35.02
2023-01-22T09:27:00,axn,34.99
2023-01-22T09:28:00,axn,34.73
2023-01-22T09:29:00,axn,35.23
2023-01-22T09:30:00,axn,35.40
2023-01-22T09:31:00,axn,35.02
2023-01-22T09:32:00,axn,41.09
2023-01-22T09:33:00,axn,41.21
2023-01-22T09:34:00,axn,40.65
2023-01-22T09:35:00,axn,40.58
2023-01-22T09:36:00,axn,35.12
2023-01-22T09:37:00,axn,34.74
2023-01-22T09:38:00,axn,34.80
2023-01-22T09:39:00,axn,34.95
2023-01-22T09:40:00,axn,34.87
2023-01-22T09:41:00,axn,34.88
2023-01-22T09:42:00,axn,34.60
2023-01-22T09:43:00,axn,35.16
2023-01-22T09:44:00,axn,35.19
2023-01-22T09:45:00,axn,35.19
2023-01-22T09:46:00,axn,35.28
2023-01-22T09:47:00,axn,34.90
2023-01-22T09:48:00,axn,35.03
2023-01-22T09:49:00,axn,34.53
2023-01-22T09:50:00,axn,37.19
2023-01-22T09:51:00,axn,34.22
2023-01-22T09:52:00,axn,34.04
2023-01-22T09:53:00,axn,34.07
2023-01-22T09:54:00,axn,34.63
2023-01-22T09:55:00,axn,34.48
2023-01-22T09:56:00,axn,34.47
2023-01-22T09:57:00,axn,34.80
2023-01-22T09:58:00,axn,34.38
2023-01-22T09:59:00,axn,34.53
2023-01-22T10:00:00,axn,34.75
2023-01-22T10:01:00,axn,34.26
2023-01-22T10:02:00,axn,34.26
2023-01-22T10:03:00,axn,34.72
2023-01-22T10:04:00,axn,34.58
2023-01-22T10:05:00,axn,34.71
2023-01-22T10:06:00,axn,34.74
2023-01-22T10:07:00,axn,35.15
2023-01-22T10:08:00,axn,34.52
2023-01-22T10:09:00,axn,34.55
2023-01-22T10:10:00,axn,34.48
2023-01-22T10:11:00,axn,34.39
2023-01-22T10:12:00,axn,34.38
2023-01-22T10:13:00,axn,34.44
2023-01-22T10:14:00,axn,34.54
2023-01-22T10:15:00,axn,34.46
2023-01-22T10:16:00,axn,34.86
2023-01-22T10:17:00,axn,34.62
2023-01-22T10:18:00,axn,49.12
2023-01-22T10:19:00,axn,48.77
2023-01-22T10:20:00,axn,48.58
2023-01-22T10:21:00,axn,48.15
2023-01-22T10:22:00,axn,48.10
2023-01-22T10:23:00,axn,48.37
2023-01-22T10:24:00,axn,34.56
2023-01-22T10:25:00,axn,34.47
2023-01-22T10:26:00,axn,34.72
2023-01-22T10:27:00,axn,34.85
2023-01-22T10:28:00,axn,39.38
2023-01-22T10:29:00,axn,39.02
2023-01-22T10:30:00,axn,38.59
2023-01-22T10:31:00,axn,35.05
2023-01-22T10:32:00,axn,34.48
2023-01-22T10:33:00,axn,34.91
2023-01-22T10:34:00,axn,34.84
2023-01-22T10:35:00,axn,34.55
2023-01-22T10:36:00,axn,34.62
2023-01-22T10:37:00,axn,35.00
2023-01-22T10:38:00,axn,34.62
2023-01-22T10:39:00,axn,34.70
2023-01-22T10:40:00,axn,34.63
2023-01-22T10:41:00,axn,34.90
2023-01-22T10:42:00,axn,34.96
2023-01-22T10:43:00,axn,34.94
2023-01-22T10:44:00,axn,35.25
2023-01-22T10:45:00,axn,35.17
2023-01-22T10:46:00,axn,35.06
2023-01-22T10:47:00,axn,35.12
2023-01-22T10:48:00,axn,35.01
2023-01-22T10:49:00,axn,34.80
2023-01-22T10:50:00,axn,34.47
2023-01-22T10:51:00,axn,34.43
2023-01-22T10:52:00,axn,34.45
2023-01-22T10:53:00,axn,34.70
2023-01-22T10:54:00,axn,34.77
2023-01-22T10:55:00,axn,34.85
2023-01-22T10:56:00,axn,34.68
2023-01-22T10:57:00,axn,37.48
2023-01-22T10:58:00,axn,36.96
2023-01-22T10:59:00,axn,37.13
2023-01-22T11:00:00,axn,35.28
2023-01-22T11:01:00,axn,34.46
2023-01-22T11:02:00,axn,34.57
2023-01-22T11:03:00,axn,34.63
2023-01-22T11:04:00,axn,35.37
2023-01-22T11:05:00,axn,34.90
2023-01-22T11:06:00,axn,34.85
2023-01-22T11:07:00,axn,35.11
2023-01-22T11:08:00,axn,35.09
2023-01-22T11:09:00,axn,35.20
2023-01-22T11:10:00,axn,35.35
2023-01-22T11:11:00,axn,35.38
2023-01-22T11:12:00,axn,35.59
2023-01-22T11:13:00,axn,35.71
2023-01-22T11:14:00,axn,35.75
2023-01-22T11:15:00,axn,35.45
2023-01-22T11:16:00,axn,45.72
2023-01-22T11:17:00,axn,46.05
2023-01-22T11:18:00,axn,46.03
2023-01-22T11:19:00,axn,45.79
2023-01-22T11:20:00,axn,36.18
2023-01-22T11:21:00,axn,36.16
2023-01-22T11:22:00,axn,36.64
2023-01-22T11:23:00,axn,36.78
2023-01-22T11:24:00,axn,36.16
2023-01-22T11:25:00,axn,36.03
2023-01-22T11:26:00,axn,36.46
2023-01-22T11:27:00,axn,36.45
2023-01-22T11:28:00,axn,36.37
2023-01-22T11:29:00,axn,36.45
2023-01-22T11:30:00,axn,36.46
2023-01-22T11:31:00,axn,36.25
2023-01-22T11:32:00,axn,36.10
2023-01-22T11:33:00,axn,35.95
2023-01-22T11:34:00,axn,35.80
2023-01-22T11:35:00,axn,35.74
2023-01-22T11:36:00,axn,35.54
2023-01-22T11:37:00,axn,35.41
2023-01-22T11:38:00,axn,35.60
2023-01-22T11:39:00,axn,35.75
2023-01-22T11:40:00,axn,35.56
2023-01-22T11:41:00,axn,35.46
2023-01-22T11:42:00,axn,35.57
2023-01-22T11:43:00,axn,35.88
2023-01-22T11:44:00,axn,35.87
2023-01-22T11:45:00,axn,35.70
2023-01-22T11:46:00,axn,35.36
2023-01-22T11:47:00,axn,35.18
2023-01-22T11:48:00,axn,35.22
2023-01-22T11:49:00,axn,35.15
2023-01-22T11:50:00,axn,35.16
2023-01-22T11:51:00,axn,35.08
2023-01-22T11:52:00,axn,34.98
2023-01-22T11:53:00,axn,35.45
2023-01-22T11:54:00,axn,35.17
2023-01-22T11:55:00,axn,35.37
2023-01-22T11:56:00,axn,35.29
2023-01-22T11:57:00,axn,35.98
2023-01-22T11:58:00,axn,35.18
2023-01-22T11:59:00,axn,35.29
2023-01-22T12:00:00,axn,35.12
2023-01-22T12:01:00,axn,35.29
2023-01-22T12:02:00,axn,35.32
2023-01-22T12:03:00,axn,38.49
2023-01-22T12:04:00,axn,40.51
2023-01-22T12:05:00,axn,40.92
2023-01-22T12:06:00,axn,40.64
2023-01-22T12:07:00,axn,37.29
2023-01-22T12:08:00,axn,37.69
2023-01-22T12:09:00,axn,37.37
2023-01-22T12:10:00,axn,37.68
2023-01-22T12:11:00,axn,37.34
2023-01-22T12:12:00,axn,37.36
2023-01-22T12:13:00,axn,37.23
2023-01-22T12:14:00,axn,37.16
2023-01-22T12:15:00,axn,37.08
2023-01-22T12:16:00,axn,37.10
2023-01-22T12:17:00,axn,37.25
2023-01-22T12:18:00,axn,37.19
2023-01-22T12:19:00,axn,38.13
2023-01-22T12:20:00,axn,37.52
2023-01-22T12:21:00,axn,37.15
2023-01-22T12:22:00,axn,37.24
2023-01-22T12:23:00,axn,37.68
2023-01-22T12:24:00,axn,38.22
2023-01-22T12:25:00,axn,37.90
2023-01-22T12:26:00,axn,37.80
2023-01-22T12:27:00,axn,38.14
2023-01-22T12:28:00,axn,38.05
2023-01-22T12:29:00,axn,37.84
2023-01-22T12:30:00,axn,37.77
2023-01-22T12:31:00,axn,39.98
2023-01-22T12:32:00,axn,56.46
2023-01-22T12:33:00,axn,42.06
2023-01-22T12:34:00,axn,42.31
2023-01-22T12:35:00,axn,42.32
2023-01-22T12:36:00,axn,42.60
2023-01-22T12:37:00,axn,41.42
2023-01-22T12:38:00,axn,41.72
2023-01-22T12:39:00,axn,41.46
2023-01-22T12:40:00,axn,44.11
2023-01-22T12:41:00,axn,44.32
2023-01-22T12:42:00,axn,41.67
2023-01-22T12:43:00,axn,41.66
2023-01-22T12:44:00,axn,41.74
2023-01-22T12:45:00,axn,41.69
2023-01-22T12:46:00,axn,42.03
2023-01-22T12:47:00,axn,41.57
2023-01-22T12:48:00,axn,41.27
2023-01-22T12:49:00,axn,41.33
2023-01-22T12:50:00,axn,41.18
2023-01-22T12:51:00,axn,41.31
2023-01-22T12:52:00,axn,41.26
2023-01-22T12:53:00,axn,41.38
2023-01-22T12:54:00,axn,41.50
2023-01-22T12:55:00,axn,41.61
2023-01-22T12:56:00,axn,41.47
2023-01-22T12:57:00,axn,41.27
2023-01-22T12:58:00,axn,41.45
2023-01-22T12:59:00,axn,41.75
2023-01-22T13:00:00,axn,41.06
2023-01-22T13:01:00,axn,41.13
2023-01-22T13:02:00,axn,41.37
2023-01-22T13:03:00,axn,41.25
2023-01-22T13:04:00,axn,41.06
2023-01-22T13:05:00,axn,41.06
2023-01-22T13:06:00,axn,40.97
2023-01-22T13:07:00,axn,41.24
2023-01-22T13:08:00,axn,41.35
2023-01-22T13:09:00,axn,41.90
2023-01-22T13:10:00,axn,42.12
2023-01-22T13:11:00,axn,41.73
2023-01-22T13:12:00,axn,41.59
2023-01-22T13:13:00,axn,41.63
2023-01-22T13:14:00,axn,41.20
2023-01-22T13:15:00,axn,43.92
2023-01-22T13:16:00,axn,44.19
2023-01-22T13:17:00,axn,43.79
2023-01-22T13:18:00,axn,41.39